Time,TemperatureF,DewpointF,PressureIn,WindDirection,WindDirectionDegrees,WindSpeedMPH,WindSpeedGustMPH,Humidity,HourlyPrecipIn,Conditions,Clouds,dailyrainin,SoftwareType,DateUTC
2013-08-03 00:02:00,80.7,78.8,29.95,North,357,3.0,3.0,94,0.00,,,0.00,Wunderground v.1.15,2013-08-03 04:02:00,
2013-08-03 00:06:00,80.7,78.8,29.95,North,357,2.0,3.0,94,0.00,,,0.00,Wunderground v.1.15,2013-08-03 04:06:00,
2013-08-03 00:10:00,80.5,78.6,29.95,North,357,2.0,2.0,94,0.00,,,0.00,Wunderground v.1.15,2013-08-03 04:10:00,
2013-08-03 00:14:00,80.5,78.6,29.94,North,357,2.0,2.0,94,0.00,,,0.00,Wunderground v.1.15,2013-08-03 04:14:00,
2013-08-03 00:20:00,80.5,78.6,29.94,North,357,2.0,2.0,94,0.00,,,0.00,Wunderground v.1.15,2013-08-03 04:20:00,
2013-08-03 00:26:00,80.5,78.6,29.94,North,357,2.0,3.0,94,0.00,,,0.00,Wunderground v.1.15,2013-08-03 04:26:00,
2013-08-03 00:32:00,80.3,78.4,29.94,North,357,2.0,3.0,94,0.00,,,0.00,Wunderground v.1.15,2013-08-03 04:32:00,
2013-08-03 00:37:00,80.3,78.4,29.94,North,357,1.0,3.0,94,0.00,,,0.00,Wunderground v.1.15,2013-08-03 04:37:00,
2013-08-03 00:40:00,80.3,78.4,29.94,North,357,2.0,2.0,94,0.00,,,0.00,Wunderground v.1.15,2013-08-03 04:40:00,
2013-08-03 00:46:00,80.3,78.7,29.94,North,353,2.0,5.0,95,0.00,,,0.00,Wunderground v.1.15,2013-08-03 04:46:00,
2013-08-03 00:52:00,80.3,78.4,29.94,North,357,1.0,4.0,94,0.00,,,0.00,Wunderground v.1.15,2013-08-03 04:52:00,
2013-08-03 00:57:00,80.5,78.6,29.94,North,356,1.0,4.0,94,0.00,,,0.00,Wunderground v.1.15,2013-08-03 04:57:00,
2013-08-03 01:04:00,80.5,78.6,29.94,North,357,2.0,2.0,94,0.00,,,0.00,Wunderground v.1.15,2013-08-03 05:04:00,
2013-08-03 01:10:00,80.5,78.9,29.94,North,356,2.0,2.0,95,0.00,,,0.00,Wunderground v.1.15,2013-08-03 05:10:00,
2013-08-03 01:16:00,80.5,78.9,29.95,North,357,1.0,2.0,95,0.00,,,0.00,Wunderground v.1.15,2013-08-03 05:16:00,
2013-08-03 01:21:00,80.5,78.9,29.95,North,357,1.0,1.0,95,0.00,,,0.00,Wunderground v.1.15,2013-08-03 05:21:00,
2013-08-03 01:28:00,80.5,78.9,29.95,North,357,1.0,2.0,95,0.00,,,0.00,Wunderground v.1.15,2013-08-03 05:28:00,
2013-08-03 01:34:00,80.5,78.9,29.94,North,357,2.0,2.0,95,0.00,,,0.00,Wunderground v.1.15,2013-08-03 05:34:00,
2013-08-03 01:40:00,80.5,79.3,29.94,North,357,2.0,3.0,96,0.00,,,0.00,Wunderground v.1.15,2013-08-03 05:40:00,
2013-08-03 01:46:00,80.5,79.3,29.94,North,357,1.0,3.0,96,0.00,,,0.00,Wunderground v.1.15,2013-08-03 05:46:00,
2013-08-03 01:52:00,80.3,79.4,29.94,North,357,2.0,2.0,97,0.00,,,0.00,Wunderground v.1.15,2013-08-03 05:52:00,
2013-08-03 01:58:00,80.3,79.4,29.94,North,356,2.0,2.0,97,0.00,,,0.00,Wunderground v.1.15,2013-08-03 05:58:00,
2013-08-03 02:04:00,80.1,79.2,29.93,North,357,1.0,2.0,97,0.00,,,0.00,Wunderground v.1.15,2013-08-03 06:04:00,
2013-08-03 02:10:00,80.1,79.2,29.93,North,357,1.0,1.0,97,0.00,,,0.00,Wunderground v.1.15,2013-08-03 06:10:00,
2013-08-03 02:16:00,79.9,79.0,29.93,North,356,2.0,2.0,97,0.00,,,0.00,Wunderground v.1.15,2013-08-03 06:16:00,
2013-08-03 02:22:00,79.9,79.0,29.93,North,357,1.0,2.0,97,0.00,,,0.00,Wunderground v.1.15,2013-08-03 06:22:00,
2013-08-03 02:28:00,79.9,79.0,29.93,North,357,1.0,3.0,97,0.00,,,0.00,Wunderground v.1.15,2013-08-03 06:28:00,
2013-08-03 02:34:00,79.8,78.9,29.93,North,357,1.0,1.0,97,0.00,,,0.00,Wunderground v.1.15,2013-08-03 06:34:00,
2013-08-03 02:40:00,79.8,78.9,29.93,North,357,1.0,1.0,97,0.00,,,0.00,Wunderground v.1.15,2013-08-03 06:40:00,
2013-08-03 02:46:00,79.6,79.0,29.93,North,357,1.0,1.0,98,0.00,,,0.00,Wunderground v.1.15,2013-08-03 06:46:00,
2013-08-03 02:52:00,79.4,78.8,29.93,North,357,1.0,1.0,98,0.00,,,0.00,Wunderground v.1.15,2013-08-03 06:52:00,
2013-08-03 02:58:00,79.4,78.8,29.93,North,357,1.0,3.0,98,0.00,,,0.00,Wunderground v.1.15,2013-08-03 06:58:00,
2013-08-03 03:04:00,79.4,78.8,29.93,North,356,1.0,2.0,98,0.00,,,0.00,Wunderground v.1.15,2013-08-03 07:04:00,
2013-08-03 03:10:00,79.4,78.8,29.93,North,352,1.0,2.0,98,0.00,,,0.00,Wunderground v.1.15,2013-08-03 07:10:00,
2013-08-03 03:16:00,79.4,78.5,29.92,North,356,0.0,2.0,97,0.00,,,0.00,Wunderground v.1.15,2013-08-03 07:16:00,
2013-08-03 03:22:00,79.4,78.5,29.92,North,356,0.0,1.0,97,0.00,,,0.00,Wunderground v.1.15,2013-08-03 07:22:00,
2013-08-03 03:28:00,79.4,78.5,29.92,North,356,0.0,1.0,97,0.00,,,0.00,Wunderground v.1.15,2013-08-03 07:28:00,
2013-08-03 03:34:00,79.6,78.4,29.93,North,357,1.0,2.0,96,0.00,,,0.00,Wunderground v.1.15,2013-08-03 07:34:00,
2013-08-03 03:40:00,79.8,78.6,29.93,North,356,1.0,5.0,96,0.00,,,0.00,Wunderground v.1.15,2013-08-03 07:40:00,
2013-08-03 03:46:00,79.8,78.2,29.92,North,357,1.0,5.0,95,0.00,,,0.00,Wunderground v.1.15,2013-08-03 07:46:00,
2013-08-03 03:52:00,79.8,78.2,29.92,North,357,1.0,1.0,95,0.00,,,0.00,Wunderground v.1.15,2013-08-03 07:52:00,
2013-08-03 03:58:00,79.8,78.2,29.92,North,357,1.0,4.0,95,0.00,,,0.00,Wunderground v.1.15,2013-08-03 07:58:00,
2013-08-03 04:04:00,79.9,78.3,29.92,NNW,337,1.0,3.0,95,0.00,,,0.00,Wunderground v.1.15,2013-08-03 08:04:00,
2013-08-03 04:10:00,79.9,78.3,29.92,North,356,1.0,1.0,95,0.00,,,0.00,Wunderground v.1.15,2013-08-03 08:10:00,
2013-08-03 04:16:00,80.1,78.2,29.92,North,357,2.0,2.0,94,0.00,,,0.00,Wunderground v.1.15,2013-08-03 08:16:00,
2013-08-03 04:22:00,80.1,78.2,29.92,North,357,2.0,2.0,94,0.00,,,0.00,Wunderground v.1.15,2013-08-03 08:22:00,
2013-08-03 04:28:00,80.1,78.2,29.92,North,357,1.0,2.0,94,0.00,,,0.00,Wunderground v.1.15,2013-08-03 08:28:00,
2013-08-03 04:34:00,79.9,78.3,29.92,North,357,1.0,1.0,95,0.00,,,0.00,Wunderground v.1.15,2013-08-03 08:34:00,
2013-08-03 04:40:00,79.8,78.2,29.92,North,357,1.0,2.0,95,0.00,,,0.00,Wunderground v.1.15,2013-08-03 08:40:00,
2013-08-03 04:46:00,79.8,78.2,29.92,North,357,1.0,2.0,95,0.00,,,0.00,Wunderground v.1.15,2013-08-03 08:46:00,
2013-08-03 04:52:00,79.8,78.2,29.92,North,357,1.0,2.0,95,0.00,,,0.00,Wunderground v.1.15,2013-08-03 08:52:00,
2013-08-03 04:57:00,79.9,78.3,29.92,North,349,1.0,2.0,95,0.00,,,0.00,Wunderground v.1.15,2013-08-03 08:57:00,
2013-08-03 05:04:00,79.8,78.2,29.92,North,356,1.0,1.0,95,0.00,,,0.00,Wunderground v.1.15,2013-08-03 09:04:00,
2013-08-03 05:10:00,79.8,78.2,29.92,North,357,0.0,0.0,95,0.00,,,0.00,Wunderground v.1.15,2013-08-03 09:10:00,
2013-08-03 05:15:00,79.6,78.4,29.92,North,356,0.0,0.0,96,0.00,,,0.00,Wunderground v.1.15,2013-08-03 09:15:00,
2013-08-03 05:22:00,79.4,78.5,29.92,North,353,0.0,1.0,97,0.00,,,0.00,Wunderground v.1.15,2013-08-03 09:22:00,
2013-08-03 05:28:00,79.4,78.5,29.92,North,357,0.0,1.0,97,0.00,,,0.00,Wunderground v.1.15,2013-08-03 09:28:00,
2013-08-03 05:34:00,79.2,78.3,29.92,North,357,0.0,0.0,97,0.00,,,0.00,Wunderground v.1.15,2013-08-03 09:34:00,
2013-08-03 05:40:00,79.2,78.3,29.92,North,357,0.0,0.0,97,0.00,,,0.00,Wunderground v.1.15,2013-08-03 09:40:00,
2013-08-03 05:46:00,79.2,78.3,29.93,North,357,0.0,0.0,97,0.00,,,0.00,Wunderground v.1.15,2013-08-03 09:46:00,
2013-08-03 05:52:00,79.0,78.4,29.93,North,356,0.0,0.0,98,0.00,,,0.00,Wunderground v.1.15,2013-08-03 09:52:00,
2013-08-03 05:58:00,79.0,78.4,29.93,North,356,0.0,0.0,98,0.00,,,0.00,Wunderground v.1.15,2013-08-03 09:58:00,
2013-08-03 06:04:00,78.8,78.2,29.92,North,357,0.0,0.0,98,0.00,,,0.00,Wunderground v.1.15,2013-08-03 10:04:00,
2013-08-03 06:10:00,78.6,78.3,29.92,North,357,0.0,2.0,99,0.00,,,0.00,Wunderground v.1.15,2013-08-03 10:10:00,
2013-08-03 06:16:00,78.6,78.3,29.92,North,357,0.0,2.0,99,0.00,,,0.00,Wunderground v.1.15,2013-08-03 10:16:00,
2013-08-03 06:21:00,78.6,78.6,29.92,North,357,0.0,0.0,100,0.00,,,0.00,Wunderground v.1.15,2013-08-03 10:21:00,
2013-08-03 06:28:00,78.6,78.6,29.92,North,356,0.0,0.0,100,0.00,,,0.00,Wunderground v.1.15,2013-08-03 10:28:00,
2013-08-03 06:34:00,78.6,78.6,29.93,North,357,0.0,0.0,100,0.00,,,0.00,Wunderground v.1.15,2013-08-03 10:34:00,
2013-08-03 06:40:00,78.8,78.8,29.93,North,357,0.0,0.0,100,0.00,,,0.00,Wunderground v.1.15,2013-08-03 10:40:00,
2013-08-03 06:46:00,78.6,78.6,29.93,North,356,0.0,0.0,100,0.00,,,0.00,Wunderground v.1.15,2013-08-03 10:46:00,
2013-08-03 06:52:00,78.6,78.6,29.93,North,357,0.0,0.0,100,0.00,,,0.00,Wunderground v.1.15,2013-08-03 10:52:00,
2013-08-03 06:58:00,78.6,78.6,29.93,North,357,0.0,0.0,100,0.00,,,0.00,Wunderground v.1.15,2013-08-03 10:58:00,
2013-08-03 07:04:00,78.6,78.6,29.93,North,357,0.0,0.0,100,0.00,,,0.00,Wunderground v.1.15,2013-08-03 11:04:00,
2013-08-03 07:10:00,78.8,78.8,29.93,North,357,0.0,0.0,100,0.00,,,0.00,Wunderground v.1.15,2013-08-03 11:10:00,
2013-08-03 07:16:00,79.2,79.2,29.93,North,357,0.0,1.0,100,0.00,,,0.00,Wunderground v.1.15,2013-08-03 11:16:00,
2013-08-03 07:22:00,79.6,79.3,29.93,North,357,0.0,0.0,99,0.00,,,0.00,Wunderground v.1.15,2013-08-03 11:22:00,
2013-08-03 07:28:00,79.9,79.6,29.93,North,357,0.0,0.0,99,0.00,,,0.00,Wunderground v.1.15,2013-08-03 11:28:00,
2013-08-03 07:34:00,80.1,79.2,29.93,North,354,0.0,1.0,97,0.00,,,0.00,Wunderground v.1.15,2013-08-03 11:34:00,
2013-08-03 07:40:00,80.7,79.8,29.93,North,353,0.0,0.0,97,0.00,,,0.00,Wunderground v.1.15,2013-08-03 11:40:00,
2013-08-03 07:46:00,81.1,79.9,29.93,North,357,0.0,0.0,96,0.00,,,0.00,Wunderground v.1.15,2013-08-03 11:46:00,
2013-08-03 07:51:00,81.2,79.6,29.93,North,357,1.0,1.0,95,0.00,,,0.00,Wunderground v.1.15,2013-08-03 11:51:00,
2013-08-03 07:58:00,81.4,79.2,29.93,North,357,1.0,2.0,93,0.00,,,0.00,Wunderground v.1.15,2013-08-03 11:58:00,
2013-08-03 08:04:00,81.8,79.2,29.93,North,357,1.0,3.0,92,0.00,,,0.00,Wunderground v.1.15,2013-08-03 12:04:00,
2013-08-03 08:10:00,82.0,79.1,29.93,North,357,2.0,2.0,91,0.00,,,0.00,Wunderground v.1.15,2013-08-03 12:10:00,
2013-08-03 08:16:00,82.0,79.1,29.94,North,357,2.0,3.0,91,0.00,,,0.00,Wunderground v.1.15,2013-08-03 12:16:00,
2013-08-03 08:22:00,82.0,79.1,29.94,North,357,2.0,2.0,91,0.00,,,0.00,Wunderground v.1.15,2013-08-03 12:22:00,
2013-08-03 08:28:00,82.0,79.1,29.94,North,357,1.0,2.0,91,0.00,,,0.00,Wunderground v.1.15,2013-08-03 12:28:00,
2013-08-03 08:34:00,83.2,79.6,29.94,North,356,1.0,2.0,89,0.00,,,0.00,Wunderground v.1.15,2013-08-03 12:34:00,
2013-08-03 08:40:00,84.1,79.5,29.94,North,357,2.0,3.0,86,0.00,,,0.00,Wunderground v.1.15,2013-08-03 12:40:00,
2013-08-03 08:46:00,84.5,79.5,29.94,North,356,2.0,3.0,85,0.00,,,0.00,Wunderground v.1.15,2013-08-03 12:46:00,
2013-08-03 08:52:00,85.1,79.7,29.94,NNW,347,2.0,2.0,84,0.00,,,0.00,Wunderground v.1.15,2013-08-03 12:52:00,
2013-08-03 08:58:00,85.3,79.5,29.94,North,353,1.0,2.0,83,0.00,,,0.00,Wunderground v.1.15,2013-08-03 12:58:00,
2013-08-03 09:04:00,85.3,78.4,29.94,North,357,1.0,5.0,80,0.00,,,0.00,Wunderground v.1.15,2013-08-03 13:04:00,
2013-08-03 09:10:00,85.9,79.0,29.94,North,357,2.0,5.0,80,0.00,,,0.00,Wunderground v.1.15,2013-08-03 13:10:00,
2013-08-03 09:16:00,85.7,78.8,29.94,North,357,2.0,5.0,80,0.00,,,0.00,Wunderground v.1.15,2013-08-03 13:16:00,
2013-08-03 09:22:00,85.9,79.0,29.94,North,357,2.0,4.0,80,0.00,,,0.00,Wunderground v.1.15,2013-08-03 13:22:00,
2013-08-03 09:28:00,85.9,80.1,29.94,North,357,2.0,4.0,83,0.00,,,0.00,Wunderground v.1.15,2013-08-03 13:28:00,
2013-08-03 09:34:00,85.9,79.0,29.93,North,357,2.0,2.0,80,0.00,,,0.00,Wunderground v.1.15,2013-08-03 13:34:00,
2013-08-03 09:40:00,86.3,79.4,29.93,North,356,2.0,3.0,80,0.00,,,0.00,Wunderground v.1.15,2013-08-03 13:40:00,
2013-08-03 09:46:00,86.3,79.0,29.93,North,357,2.0,3.0,79,0.00,,,0.00,Wunderground v.1.15,2013-08-03 13:46:00,
2013-08-03 09:52:00,86.3,78.2,29.93,North,356,2.0,2.0,77,0.00,,,0.00,Wunderground v.1.15,2013-08-03 13:52:00,
2013-08-03 09:58:00,86.5,79.2,29.93,North,354,2.0,3.0,79,0.00,,,0.00,Wunderground v.1.15,2013-08-03 13:58:00,
2013-08-03 10:04:00,86.5,79.6,29.93,North,357,2.0,2.0,80,0.00,,,0.00,Wunderground v.1.15,2013-08-03 14:04:00,
2013-08-03 10:10:00,85.9,79.0,29.93,North,357,2.0,2.0,80,0.00,,,0.00,Wunderground v.1.15,2013-08-03 14:10:00,
2013-08-03 10:16:00,85.9,79.4,29.93,North,357,3.0,3.0,81,0.00,,,0.00,Wunderground v.1.15,2013-08-03 14:16:00,
2013-08-03 10:22:00,86.1,79.2,29.93,North,357,2.0,2.0,80,0.00,,,0.00,Wunderground v.1.15,2013-08-03 14:22:00,
2013-08-03 10:28:00,86.1,78.8,29.93,North,356,2.0,3.0,79,0.00,,,0.00,Wunderground v.1.15,2013-08-03 14:28:00,
2013-08-03 10:33:00,87.0,79.7,29.93,North,356,2.0,2.0,79,0.00,,,0.00,Wunderground v.1.15,2013-08-03 14:33:00,
2013-08-03 10:40:00,87.2,79.5,29.93,North,356,2.0,5.0,78,0.00,,,0.00,Wunderground v.1.15,2013-08-03 14:40:00,
2013-08-03 10:46:00,87.0,79.3,29.93,North,357,2.0,5.0,78,0.00,,,0.00,Wunderground v.1.15,2013-08-03 14:46:00,
2013-08-03 10:52:00,87.8,79.7,29.93,North,349,1.0,3.0,77,0.00,,,0.00,Wunderground v.1.15,2013-08-03 14:52:00,
2013-08-03 10:58:00,86.1,79.2,29.93,North,357,2.0,3.0,80,0.00,,,0.00,Wunderground v.1.15,2013-08-03 14:58:00,
2013-08-03 11:04:00,85.5,79.4,29.93,North,357,2.0,2.0,82,0.00,,,0.00,Wunderground v.1.15,2013-08-03 15:04:00,
2013-08-03 11:10:00,86.3,79.8,29.93,North,357,2.0,2.0,81,0.00,,,0.00,Wunderground v.1.15,2013-08-03 15:10:00,
2013-08-03 11:16:00,86.5,80.0,29.93,North,357,2.0,3.0,81,0.00,,,0.00,Wunderground v.1.15,2013-08-03 15:16:00,
2013-08-03 11:22:00,86.3,79.8,29.93,North,357,3.0,3.0,81,0.00,,,0.00,Wunderground v.1.15,2013-08-03 15:22:00,
2013-08-03 11:28:00,86.7,79.4,29.93,North,357,2.0,3.0,79,0.00,,,0.00,Wunderground v.1.15,2013-08-03 15:28:00,
2013-08-03 11:34:00,87.0,80.1,29.93,North,357,2.0,5.0,80,0.00,,,0.00,Wunderground v.1.15,2013-08-03 15:34:00,
2013-08-03 11:40:00,87.2,79.9,29.93,North,357,3.0,3.0,79,0.00,,,0.00,Wunderground v.1.15,2013-08-03 15:40:00,
2013-08-03 11:46:00,87.0,79.3,29.93,NNW,340,3.0,4.0,78,0.00,,,0.00,Wunderground v.1.15,2013-08-03 15:46:00,
2013-08-03 11:52:00,87.4,79.3,29.93,North,357,3.0,4.0,77,0.00,,,0.00,Wunderground v.1.15,2013-08-03 15:52:00,
2013-08-03 11:58:00,87.6,79.9,29.93,North,357,2.0,5.0,78,0.00,,,0.00,Wunderground v.1.15,2013-08-03 15:58:00,
2013-08-03 12:04:00,87.4,80.5,29.93,North,357,3.0,6.0,80,0.00,,,0.00,Wunderground v.1.15,2013-08-03 16:04:00,
2013-08-03 12:10:00,87.2,79.5,29.93,North,357,4.0,4.0,78,0.00,,,0.00,Wunderground v.1.15,2013-08-03 16:10:00,
2013-08-03 12:16:00,87.8,80.1,29.92,North,357,3.0,6.0,78,0.00,,,0.00,Wunderground v.1.15,2013-08-03 16:16:00,
2013-08-03 12:22:00,88.2,80.1,29.92,North,352,3.0,5.0,77,0.00,,,0.00,Wunderground v.1.15,2013-08-03 16:22:00,
2013-08-03 12:28:00,88.2,80.1,29.92,North,357,3.0,5.0,77,0.00,,,0.00,Wunderground v.1.15,2013-08-03 16:28:00,
2013-08-03 12:34:00,87.8,80.5,29.92,North,357,3.0,7.0,79,0.00,,,0.00,Wunderground v.1.15,2013-08-03 16:34:00,
2013-08-03 12:40:00,87.2,79.9,29.92,North,357,4.0,4.0,79,0.00,,,0.00,Wunderground v.1.15,2013-08-03 16:40:00,
2013-08-03 12:46:00,87.4,79.7,29.92,North,357,3.0,4.0,78,0.00,,,0.00,Wunderground v.1.15,2013-08-03 16:46:00,
2013-08-03 12:52:00,88.0,80.3,29.92,North,357,2.0,3.0,78,0.00,,,0.00,Wunderground v.1.15,2013-08-03 16:52:00,
2013-08-03 12:58:00,87.8,80.1,29.92,North,357,3.0,7.0,78,0.00,,,0.00,Wunderground v.1.15,2013-08-03 16:58:00,
2013-08-03 13:04:00,87.8,80.5,29.92,North,357,4.0,4.0,79,0.00,,,0.00,Wunderground v.1.15,2013-08-03 17:04:00,
2013-08-03 13:10:00,88.0,80.7,29.92,North,357,3.0,3.0,79,0.00,,,0.00,Wunderground v.1.15,2013-08-03 17:10:00,
2013-08-03 13:16:00,88.0,79.9,29.93,NNW,346,3.0,4.0,77,0.00,,,0.00,Wunderground v.1.15,2013-08-03 17:16:00,
2013-08-03 13:22:00,88.0,79.9,29.93,North,356,4.0,8.0,77,0.00,,,0.00,Wunderground v.1.15,2013-08-03 17:22:00,
2013-08-03 13:28:00,87.6,79.5,29.93,North,356,4.0,8.0,77,0.00,,,0.00,Wunderground v.1.15,2013-08-03 17:28:00,
2013-08-03 13:32:00,88.0,79.5,29.92,North,357,3.0,4.0,76,0.00,,,0.00,Wunderground v.1.15,2013-08-03 17:32:00,
2013-08-03 13:38:00,87.8,79.3,29.92,NNW,347,3.0,4.0,76,0.00,,,0.00,Wunderground v.1.15,2013-08-03 17:38:00,
2013-08-03 13:44:00,87.4,79.7,29.92,North,357,3.0,5.0,78,0.00,,,0.00,Wunderground v.1.15,2013-08-03 17:44:00,
2013-08-03 13:50:00,86.1,79.2,29.92,North,356,3.0,4.0,80,0.00,,,0.00,Wunderground v.1.15,2013-08-03 17:50:00,
2013-08-03 13:56:00,85.9,79.8,29.92,North,357,3.0,4.0,82,0.00,,,0.00,Wunderground v.1.15,2013-08-03 17:56:00,
2013-08-03 14:02:00,84.5,79.8,29.92,North,357,2.0,2.0,86,0.00,,,0.00,Wunderground v.1.15,2013-08-03 18:02:00,
2013-08-03 14:08:00,84.0,80.4,29.92,North,357,2.0,2.0,89,0.00,,,0.00,Wunderground v.1.15,2013-08-03 18:08:00,
2013-08-03 14:14:00,84.3,80.4,29.91,North,357,3.0,3.0,88,0.00,,,0.00,Wunderground v.1.15,2013-08-03 18:14:00,
2013-08-03 14:20:00,85.5,80.5,29.91,North,357,3.0,3.0,85,0.00,,,0.00,Wunderground v.1.15,2013-08-03 18:20:00,
2013-08-03 14:26:00,86.1,79.6,29.91,North,356,2.0,3.0,81,0.00,,,0.00,Wunderground v.1.15,2013-08-03 18:26:00,
2013-08-03 14:32:00,86.7,79.8,29.90,North,356,2.0,5.0,80,0.00,,,0.00,Wunderground v.1.15,2013-08-03 18:32:00,
2013-08-03 14:38:00,87.2,80.3,29.90,North,356,2.0,5.0,80,0.00,,,0.00,Wunderground v.1.15,2013-08-03 18:38:00,
2013-08-03 14:44:00,87.0,80.1,29.89,North,356,2.0,5.0,80,0.00,,,0.00,Wunderground v.1.15,2013-08-03 18:44:00,
2013-08-03 14:50:00,87.6,79.5,29.89,North,357,3.0,3.0,77,0.00,,,0.00,Wunderground v.1.15,2013-08-03 18:50:00,
2013-08-03 14:56:00,87.6,79.9,29.89,North,357,3.0,3.0,78,0.00,,,0.00,Wunderground v.1.15,2013-08-03 18:56:00,
2013-08-03 15:02:00,87.4,79.7,29.90,WNW,287,2.0,3.0,78,0.00,,,0.00,Wunderground v.1.15,2013-08-03 19:02:00,
2013-08-03 15:08:00,86.5,79.2,29.90,North,359,2.0,10.0,79,0.00,,,0.00,Wunderground v.1.15,2013-08-03 19:08:00,
2013-08-03 15:13:00,86.1,79.2,29.88,North,357,3.0,6.0,80,0.00,,,0.00,Wunderground v.1.15,2013-08-03 19:13:00,
2013-08-03 15:20:00,86.5,78.8,29.88,North,357,2.0,2.0,78,0.00,,,0.00,Wunderground v.1.15,2013-08-03 19:20:00,
2013-08-03 15:26:00,87.6,79.5,29.88,North,357,2.0,7.0,77,0.00,,,0.00,Wunderground v.1.15,2013-08-03 19:26:00,
2013-08-03 15:32:00,88.0,79.9,29.88,North,357,2.0,2.0,77,0.00,,,0.00,Wunderground v.1.15,2013-08-03 19:32:00,
2013-08-03 15:38:00,87.8,79.7,29.88,North,357,2.0,3.0,77,0.00,,,0.00,Wunderground v.1.15,2013-08-03 19:38:00,
2013-08-03 15:44:00,87.6,79.9,29.87,North,357,3.0,5.0,78,0.00,,,0.00,Wunderground v.1.15,2013-08-03 19:44:00,
2013-08-03 15:50:00,87.4,79.7,29.87,North,356,3.0,3.0,78,0.00,,,0.00,Wunderground v.1.15,2013-08-03 19:50:00,
2013-08-03 15:56:00,87.6,79.9,29.87,North,357,3.0,3.0,78,0.00,,,0.00,Wunderground v.1.15,2013-08-03 19:56:00,
2013-08-03 16:02:00,87.8,79.7,29.87,North,353,3.0,5.0,77,0.00,,,0.00,Wunderground v.1.15,2013-08-03 20:02:00,
2013-08-03 16:08:00,87.4,80.1,29.87,North,353,3.0,5.0,79,0.00,,,0.00,Wunderground v.1.15,2013-08-03 20:08:00,
2013-08-03 16:14:00,87.4,79.7,29.86,North,357,3.0,3.0,78,0.00,,,0.00,Wunderground v.1.15,2013-08-03 20:14:00,
2013-08-03 16:20:00,86.7,79.0,29.86,North,356,3.0,3.0,78,0.00,,,0.00,Wunderground v.1.15,2013-08-03 20:20:00,
2013-08-03 16:25:00,86.3,79.4,29.86,North,357,3.0,5.0,80,0.00,,,0.00,Wunderground v.1.15,2013-08-03 20:25:00,
2013-08-03 16:32:00,85.9,79.8,29.86,North,357,3.0,3.0,82,0.00,,,0.00,Wunderground v.1.15,2013-08-03 20:32:00,
2013-08-03 16:38:00,85.9,79.4,29.86,North,356,2.0,7.0,81,0.00,,,0.00,Wunderground v.1.15,2013-08-03 20:38:00,
2013-08-03 16:44:00,86.1,79.6,29.85,North,357,3.0,5.0,81,0.00,,,0.00,Wunderground v.1.15,2013-08-03 20:44:00,
2013-08-03 16:50:00,85.7,79.6,29.85,North,357,3.0,3.0,82,0.00,,,0.00,Wunderground v.1.15,2013-08-03 20:50:00,
2013-08-03 16:53:00,85.7,79.6,29.85,North,357,3.0,3.0,82,0.00,,,0.00,Wunderground v.1.15,2013-08-03 20:53:00,
2013-08-03 17:00:00,85.7,79.2,29.85,North,357,3.0,3.0,81,0.00,,,0.00,Wunderground v.1.15,2013-08-03 21:00:00,
2013-08-03 17:06:00,85.7,79.6,29.85,North,357,3.0,3.0,82,0.00,,,0.00,Wunderground v.1.15,2013-08-03 21:06:00,
2013-08-03 17:12:00,85.9,79.4,29.85,North,356,2.0,2.0,81,0.00,,,0.00,Wunderground v.1.15,2013-08-03 21:12:00,
2013-08-03 17:18:00,86.3,79.4,29.85,North,357,2.0,3.0,80,0.00,,,0.00,Wunderground v.1.15,2013-08-03 21:18:00,
2013-08-03 17:24:00,85.9,79.4,29.85,North,357,3.0,4.0,81,0.00,,,0.00,Wunderground v.1.15,2013-08-03 21:24:00,
2013-08-03 17:30:00,85.9,79.4,29.86,North,357,3.0,3.0,81,0.00,,,0.00,Wunderground v.1.15,2013-08-03 21:30:00,
2013-08-03 17:36:00,86.3,79.4,29.86,North,357,2.0,5.0,80,0.00,,,0.00,Wunderground v.1.15,2013-08-03 21:36:00,
2013-08-03 17:41:00,86.1,79.6,29.86,North,357,3.0,6.0,81,0.00,,,0.00,Wunderground v.1.15,2013-08-03 21:41:00,
2013-08-03 17:48:00,86.7,79.8,29.86,North,356,3.0,6.0,80,0.00,,,0.00,Wunderground v.1.15,2013-08-03 21:48:00,
2013-08-03 17:54:00,86.7,79.8,29.86,North,357,2.0,2.0,80,0.00,,,0.00,Wunderground v.1.15,2013-08-03 21:54:00,
2013-08-03 18:00:00,85.7,79.6,29.85,North,357,2.0,3.0,82,0.00,,,0.00,Wunderground v.1.15,2013-08-03 22:00:00,
2013-08-03 18:06:00,86.1,80.0,29.85,North,356,3.0,5.0,82,0.00,,,0.00,Wunderground v.1.15,2013-08-03 22:06:00,
2013-08-03 18:12:00,85.9,79.8,29.85,North,357,3.0,3.0,82,0.00,,,0.00,Wunderground v.1.15,2013-08-03 22:12:00,
2013-08-03 18:18:00,85.7,79.6,29.85,North,357,3.0,4.0,82,0.00,,,0.00,Wunderground v.1.15,2013-08-03 22:18:00,
2013-08-03 18:24:00,85.5,79.7,29.85,North,357,3.0,5.0,83,0.00,,,0.00,Wunderground v.1.15,2013-08-03 22:24:00,
2013-08-03 18:30:00,85.1,79.7,29.85,North,357,3.0,3.0,84,0.00,,,0.00,Wunderground v.1.15,2013-08-03 22:30:00,
2013-08-03 18:35:00,84.9,79.9,29.85,North,357,2.0,3.0,85,0.00,,,0.00,Wunderground v.1.15,2013-08-03 22:35:00,
2013-08-03 18:42:00,85.1,79.7,29.85,North,357,2.0,5.0,84,0.00,,,0.00,Wunderground v.1.15,2013-08-03 22:42:00,
2013-08-03 18:48:00,84.9,79.5,29.85,North,357,2.0,5.0,84,0.00,,,0.00,Wunderground v.1.15,2013-08-03 22:48:00,
2013-08-03 18:54:00,84.7,79.3,29.85,North,357,2.0,8.0,84,0.00,,,0.00,Wunderground v.1.15,2013-08-03 22:54:00,
2013-08-03 19:00:00,84.7,79.3,29.85,North,356,2.0,3.0,84,0.00,,,0.00,Wunderground v.1.15,2013-08-03 23:00:00,
2013-08-03 19:06:00,84.5,79.1,29.85,North,357,2.0,5.0,84,0.00,,,0.00,Wunderground v.1.15,2013-08-03 23:06:00,
2013-08-03 19:12:00,84.7,79.3,29.85,North,357,2.0,4.0,84,0.00,,,0.00,Wunderground v.1.15,2013-08-03 23:12:00,
2013-08-03 19:18:00,84.5,79.1,29.85,North,357,2.0,4.0,84,0.00,,,0.00,Wunderground v.1.15,2013-08-03 23:18:00,
2013-08-03 19:24:00,84.3,78.9,29.85,North,357,2.0,5.0,84,0.00,,,0.00,Wunderground v.1.15,2013-08-03 23:24:00,
2013-08-03 19:30:00,84.1,78.7,29.85,North,356,3.0,3.0,84,0.00,,,0.00,Wunderground v.1.15,2013-08-03 23:30:00,
2013-08-03 19:35:00,84.0,79.0,29.85,North,357,3.0,8.0,85,0.00,,,0.00,Wunderground v.1.15,2013-08-03 23:35:00,
2013-08-03 19:41:00,83.8,79.2,29.85,North,349,4.0,4.0,86,0.00,,,0.00,Wunderground v.1.15,2013-08-03 23:41:00,
2013-08-03 19:47:00,83.8,79.2,29.85,North,357,3.0,4.0,86,0.00,,,0.00,Wunderground v.1.15,2013-08-03 23:47:00,
2013-08-03 19:54:00,83.6,79.0,29.85,North,357,2.0,7.0,86,0.00,,,0.00,Wunderground v.1.15,2013-08-03 23:54:00,
2013-08-03 20:00:00,83.4,78.8,29.86,North,357,2.0,6.0,86,0.00,,,0.00,Wunderground v.1.15,2013-08-04 00:00:00,
2013-08-03 20:06:00,83.4,79.1,29.86,North,357,2.0,6.0,87,0.00,,,0.00,Wunderground v.1.15,2013-08-04 00:06:00,
2013-08-03 20:12:00,83.2,79.3,29.86,North,357,3.0,4.0,88,0.00,,,0.00,Wunderground v.1.15,2013-08-04 00:12:00,
2013-08-03 20:18:00,83.2,79.3,29.86,North,357,4.0,6.0,88,0.00,,,0.00,Wunderground v.1.15,2013-08-04 00:18:00,
2013-08-03 20:24:00,83.0,79.4,29.86,North,357,4.0,5.0,89,0.00,,,0.00,Wunderground v.1.15,2013-08-04 00:24:00,
2013-08-03 20:30:00,83.0,79.8,29.86,North,357,1.0,1.0,90,0.00,,,0.00,Wunderground v.1.15,2013-08-04 00:30:00,
2013-08-03 20:36:00,83.0,80.1,29.86,North,357,1.0,2.0,91,0.00,,,0.00,Wunderground v.1.15,2013-08-04 00:36:00,
2013-08-03 20:42:00,83.0,80.1,29.86,North,357,2.0,2.0,91,0.00,,,0.00,Wunderground v.1.15,2013-08-04 00:42:00,
2013-08-03 20:48:00,83.0,80.4,29.87,North,357,2.0,2.0,92,0.00,,,0.00,Wunderground v.1.15,2013-08-04 00:48:00,
2013-08-03 20:54:00,83.0,80.4,29.87,North,356,2.0,2.0,92,0.00,,,0.00,Wunderground v.1.15,2013-08-04 00:54:00,
2013-08-03 21:00:00,83.0,80.8,29.88,North,356,2.0,2.0,93,0.00,,,0.00,Wunderground v.1.15,2013-08-04 01:00:00,
2013-08-03 21:06:00,83.0,80.8,29.88,North,357,2.0,2.0,93,0.00,,,0.00,Wunderground v.1.15,2013-08-04 01:06:00,
2013-08-03 21:12:00,83.0,80.8,29.88,North,350,2.0,2.0,93,0.00,,,0.00,Wunderground v.1.15,2013-08-04 01:12:00,
2013-08-03 21:18:00,83.0,80.8,29.88,North,357,2.0,3.0,93,0.00,,,0.00,Wunderground v.1.15,2013-08-04 01:18:00,
2013-08-03 21:24:00,83.0,80.4,29.88,North,357,3.0,5.0,92,0.00,,,0.00,Wunderground v.1.15,2013-08-04 01:24:00,
2013-08-03 21:30:00,83.0,80.8,29.88,North,357,3.0,5.0,93,0.00,,,0.00,Wunderground v.1.15,2013-08-04 01:30:00,
2013-08-03 21:36:00,83.2,81.0,29.88,North,349,3.0,7.0,93,0.00,,,0.00,Wunderground v.1.15,2013-08-04 01:36:00,
2013-08-03 21:42:00,83.2,80.6,29.88,North,357,4.0,6.0,92,0.00,,,0.00,Wunderground v.1.15,2013-08-04 01:42:00,
2013-08-03 21:48:00,83.2,80.6,29.89,North,352,4.0,6.0,92,0.00,,,0.00,Wunderground v.1.15,2013-08-04 01:48:00,
2013-08-03 21:54:00,83.0,80.4,29.89,North,356,3.0,3.0,92,0.00,,,0.00,Wunderground v.1.15,2013-08-04 01:54:00,
2013-08-03 22:00:00,83.0,80.4,29.90,North,357,4.0,4.0,92,0.00,,,0.00,Wunderground v.1.15,2013-08-04 02:00:00,
2013-08-03 22:06:00,83.0,80.8,29.90,North,357,4.0,4.0,93,0.00,,,0.00,Wunderground v.1.15,2013-08-04 02:06:00,
2013-08-03 22:12:00,83.0,80.8,29.90,North,357,3.0,5.0,93,0.00,,,0.00,Wunderground v.1.15,2013-08-04 02:12:00,
2013-08-03 22:18:00,83.0,80.8,29.89,North,357,3.0,5.0,93,0.00,,,0.00,Wunderground v.1.15,2013-08-04 02:18:00,
2013-08-03 22:24:00,83.0,80.8,29.89,North,356,2.0,6.0,93,0.00,,,0.00,Wunderground v.1.15,2013-08-04 02:24:00,
2013-08-03 22:30:00,83.0,80.8,29.90,North,356,3.0,3.0,93,0.00,,,0.00,Wunderground v.1.15,2013-08-04 02:30:00,
2013-08-03 22:36:00,82.6,81.0,29.90,North,356,3.0,7.0,95,0.00,,,0.00,Wunderground v.1.15,2013-08-04 02:36:00,
2013-08-03 22:42:00,82.4,80.8,29.90,North,356,3.0,3.0,95,0.00,,,0.00,Wunderground v.1.15,2013-08-04 02:42:00,
2013-08-03 22:48:00,82.2,80.9,29.90,North,356,2.0,3.0,96,0.00,,,0.00,Wunderground v.1.15,2013-08-04 02:48:00,
2013-08-03 22:54:00,82.2,80.9,29.90,North,357,2.0,5.0,96,0.00,,,0.00,Wunderground v.1.15,2013-08-04 02:54:00,
2013-08-03 23:00:00,82.0,81.1,29.90,North,356,3.0,5.0,97,0.00,,,0.00,Wunderground v.1.15,2013-08-04 03:00:00,
2013-08-03 23:05:00,82.0,81.4,29.90,North,356,3.0,6.0,98,0.00,,,0.00,Wunderground v.1.15,2013-08-04 03:05:00,
2013-08-03 23:12:00,82.0,81.7,29.90,North,357,3.0,4.0,99,0.00,,,0.00,Wunderground v.1.15,2013-08-04 03:12:00,
2013-08-03 23:18:00,82.0,81.7,29.90,North,356,4.0,5.0,99,0.00,,,0.00,Wunderground v.1.15,2013-08-04 03:18:00,
2013-08-03 23:23:00,82.0,82.0,29.90,North,357,4.0,6.0,100,0.00,,,0.00,Wunderground v.1.15,2013-08-04 03:23:00,
2013-08-03 23:30:00,82.0,82.0,29.90,North,357,4.0,4.0,100,0.00,,,0.00,Wunderground v.1.15,2013-08-04 03:30:00,
2013-08-03 23:36:00,81.8,81.8,29.90,North,356,4.0,4.0,100,0.00,,,0.00,Wunderground v.1.15,2013-08-04 03:36:00,
2013-08-03 23:41:00,81.8,81.8,29.90,North,356,4.0,4.0,100,0.00,,,0.00,Wunderground v.1.15,2013-08-04 03:41:00,
2013-08-03 23:48:00,81.8,81.8,29.89,North,356,3.0,4.0,100,0.00,,,0.00,Wunderground v.1.15,2013-08-04 03:48:00,
2013-08-03 23:54:00,81.6,81.6,29.89,North,356,3.0,4.0,100,0.00,,,0.00,Wunderground v.1.15,2013-08-04 03:54:00,